Wind_Speed
12 13 15 15 14 13 14 14 14 15 15 15 14 15 15 15 15 14 13 12 12 14 18 23 25 25 24 22 21 20 19 18 17 18 18 19 19 19 18 18 17 17 17 16 16 15 14 12 11 10 9 8 8 8 8 7 6 5 4 3 4 3 3 4 3 3 2 2 3 4 4 5 6 6 7 7 8 9 10 10 11 11 12 12 12
14 14 16 17 16 16 16 15 15 15 16 15 15 15 15 17 17 16 15 13 11 12 15 20 24 25 25 25 23 22 21 20 19 19 19 19 19 20 20 20 20 20 19 19 18 17 16 15 13 12 11 10 9 9 9 9 8 6 5 5 4 4 4 4 4 3 3 2 3 3 3 4 5 6 6 6 7 8 9 10 10 11 11 12 12
16 17 17 18 18 17 17 17 17 17 17 16 15 15 16 17 18 18 17 14 12 11 12 15 20 23 26 26 25 24 23 22 21 21 20 20 20 21 21 22 22 22 22 21 21 20 19 17 16 14 13 12 11 10 10 10 10 8 7 6 5 5 5 5 4 4 4 3 3 2 2 2 4 5 5 5 6 7 8 9 10 10 10 11 12
19 20 19 19 19 18 19 19 18 17 17 17 16 16 17 18 19 20 19 17 15 12 11 12 15 19 23 26 26 26 25 24 24 23 23 23 22 22 23 23 24 24 24 23 23 22 21 20 18 17 15 14 13 12 11 11 11 10 9 8 7 6 5 6 5 4 4 4 4 3 2 1 2 3 4 4 5 6 7 8 9 9 10 11 11
22 23 23 21 21 21 20 20 20 19 18 19 18 18 19 19 20 21 21 20 18 16 13 11 12 16 20 23 25 26 26 25 26 26 26 26 25 24 24 24 25 26 27 26 25 24 23 22 21 19 17 16 15 13 12 12 12 12 11 10 9 7 6 6 6 6 5 5 5 4 3 2 0 1 2 3 4 5 6 7 8 9 9 10 11
23 25 25 23 23 23 23 22 22 22 22 21 19 18 19 20 20 22 23 23 21 20 18 14 12 14 16 18 21 23 24 25 25 27 27 28 27 26 25 25 25 27 28 27 26 26 25 24 23 22 20 18 17 15 14 13 13 12 12 11 10 9 8 7 7 7 6 6 5 5 5 3 2 0 1 2 2 4 5 6 7 8 9 10 10
24 23 23 25 26 26 27 26 25 24 24 23 21 19 20 20 21 22 24 25 25 23 22 19 15 14 14 14 16 18 20 22 24 25 27 28 29 29 27 26 26 27 29 29 28 27 27 26 25 24 22 20 19 18 16 15 14 13 13 12 11 10 9 8 8 8 7 7 6 6 5 5 3 2 1 1 1 2 3 5 6 6 7 8 9
25 25 23 23 24 27 30 30 28 27 28 27 25 23 22 21 21 21 23 26 27 27 26 23 19 17 16 15 15 15 17 20 22 24 26 28 29 30 30 28 27 27 30 31 31 29 28 28 27 26 24 22 21 20 18 16 15 14 14 13 12 11 10 10 9 9 8 8 7 6 5 5 5 3 2 2 2 2 2 3 4 5 6 6 7
26 26 26 24 23 24 28 31 31 31 32 32 31 30 27 25 23 22 22 25 27 29 28 26 23 21 20 18 17 16 16 18 20 23 25 27 29 30 31 30 29 28 30 33 33 32 30 29 29 27 26 24 23 22 20 18 17 16 15 14 13 12 11 11 10 10 9 9 9 8 6 6 5 5 4 3 3 3 2 2 3 4 4 4 5
26 25 26 27 27 26 27 30 31 31 33 34 33 33 31 28 26 25 23 24 26 29 29 28 26 25 23 21 20 18 17 17 18 21 24 27 28 30 32 32 31 30 31 33 35 34 32 31 30 29 27 26 24 24 22 20 18 17 16 15 14 13 12 12 11 11 10 10 10 10 9 8 7 6 5 5 4 4 3 3 2 2 3 3 4
30 27 25 26 27 28 29 29 29 29 30 30 31 30 30 29 28 27 25 24 25 28 29 29 29 28 25 23 22 20 19 18 18 20 22 25 28 30 31 32 32 31 31 33 36 36 34 33 32 31 29 28 27 25 24 22 20 18 17 16 15 15 14 13 13 12 12 11 11 11 11 10 9 8 7 7 6 6 5 4 3 3 3 3 3
32 31 28 27 27 28 29 30 30 29 28 27 29 30 31 30 29 28 27 25 25 28 30 31 30 30 27 24 24 23 21 20 20 20 21 24 27 29 31 32 32 32 31 33 36 37 36 35 34 33 32 30 28 27 25 24 22 20 19 17 17 16 15 14 14 14 13 12 12 12 12 12 11 11 10 9 8 7 7 6 5 4 4 4 4
33 32 30 29 29 28 29 30 30 30 28 28 29 30 30 31 31 30 29 28 27 29 32 32 31 30 29 26 26 25 23 22 20 20 20 22 26 28 31 33 33 33 32 33 36 38 38 36 35 34 33 32 30 28 27 26 24 22 21 19 18 17 16 16 15 15 14 14 13 13 13 13 12 12 12 11 10 9 9 8 7 6 6 5 5
30 32 30 30 30 30 30 31 31 32 31 30 29 29 30 32 33 32 31 30 29 30 32 32 31 31 31 28 26 26 25 23 21 20 21 22 24 27 30 32 34 34 34 33 34 37 39 38 36 35 35 33 32 30 29 27 26 24 23 22 20 19 18 17 17 17 16 16 15 15 14 14 13 13 13 13 12 12 11 10 9 8 8 7 7
29 30 30 30 31 31 32 33 34 35 35 34 34 33 32 33 34 34 32 32 31 31 32 33 33 34 33 29 27 28 26 24 23 23 25 24 22 23 27 31 33 35 35 33 32 36 39 39 37 36 36 35 34 32 31 29 28 26 25 24 22 21 20 20 19 19 18 18 17 16 16 15 15 14 14 13 13 13 12 12 11 10 10 9 9
32 31 31 31 31 32 32 33 36 36 35 37 39 38 36 35 36 36 34 33 32 33 33 35 36 36 34 30 29 29 27 26 27 27 27 24 22 22 26 30 33 35 35 33 32 35 39 40 39 37 37 36 35 33 32 31 30 28 27 26 25 24 23 22 22 21 20 19 18 17 17 16 16 15 15 14 14 14 14 13 13 12 11 11 10
36 35 34 33 32 32 32 32 34 35 34 35 38 39 38 37 37 37 35 32 33 35 36 36 38 38 36 33 31 30 28 29 29 27 27 25 24 23 25 28 32 35 35 34 33 34 37 40 40 38 38 38 36 34 33 33 31 30 29 28 27 26 25 25 24 23 22 21 20 19 18 17 17 17 16 15 15 15 15 14 14 14 13 13 12
38 38 37 35 33 33 32 32 33 35 35 34 34 36 37 39 39 37 36 33 34 37 37 37 39 39 37 35 34 32 30 30 30 28 28 27 26 25 25 27 30 34 35 35 34 34 36 39 41 40 39 39 38 36 35 34 33 32 31 31 30 28 27 26 25 24 23 22 21 20 19 19 18 18 17 17 16 16 15 16 16 16 15 15 14
37 38 39 37 35 33 33 33 33 34 35 34 33 33 34 37 38 35 34 34 35 38 38 39 40 39 39 37 36 35 31 31 30 29 29 29 29 28 27 28 29 32 35 36 35 34 35 39 41 41 41 40 40 39 37 36 35 33 32 32 31 30 29 28 27 26 25 24 22 21 20 20 20 20 19 18 18 17 17 17 17 17 17 17 16
37 37 38 38 37 34 33 33 33 33 35 35 35 34 34 35 35 34 33 34 35 37 38 41 41 40 41 40 37 35 33 32 31 31 32 31 31 31 30 29 30 31 35 37 37 36 36 38 40 41 41 41 41 40 39 37 36 35 34 34 33 32 31 30 29 28 27 25 24 22 21 21 21 21 21 20 19 19 18 18 18 18 18 18 17
37 37 37 37 37 35 34 33 33 33 34 35 35 35 36 36 36 36 35 34 35 37 39 42 42 41 42 41 38 35 34 33 33 34 35 34 34 34 33 31 30 30 34 38 39 38 37 38 40 41 42 41 41 41 40 38 37 36 35 35 35 34 33 32 31 30 28 27 25 24 22 22 22 22 22 22 21 21 20 20 19 19 18 19 19
38 37 37 37 37 36 35 34 34 34 33 34 33 35 38 37 37 37 33 32 34 38 41 42 42 40 41 41 39 36 34 34 35 36 38 37 35 34 34 33 30 31 34 38 40 40 39 39 39 41 41 41 42 42 42 41 39 38 37 37 37 36 35 34 32 31 30 28 27 25 24 23 23 23 24 24 23 23 22 22 21 20 20 19 20
40 39 38 38 38 38 36 35 36 35 34 34 33 36 39 38 39 37 33 34 37 40 41 41 41 40 39 40 39 38 36 34 35 38 39 39 37 35 35 34 31 31 33 36 39 40 39 39 39 40 41 42 42 43 43 43 42 41 40 39 38 37 36 35 34 33 31 30 29 27 26 25 25 25 25 25 25 25 24 24 23 23 22 21 21
41 41 40 40 39 39 37 36 37 37 37 36 34 35 38 39 39 37 36 38 39 39 39 40 40 40 40 40 40 41 39 36 36 39 40 41 39 36 35 36 33 31 33 36 38 40 40 40 39 40 41 42 42 43 44 45 44 43 43 41 40 38 37 36 35 34 33 32 31 29 28 27 26 26 27 27 27 26 26 26 25 25 25 24 23
42 41 41 40 39 39 38 37 37 38 39 38 35 35 37 39 41 40 39 40 39 38 39 38 40 41 40 40 40 41 41 38 39 40 40 42 42 37 35 37 34 31 34 36 36 38 41 41 41 42 43 43 42 43 44 45 46 46 45 43 42 40 38 37 36 36 35 34 33 32 31 30 29 29 29 29 29 28 28 27 27 27 27 26 25
42 41 40 39 39 38 37 36 36 37 38 39 38 37 37 39 41 43 42 41 41 41 40 40 41 41 42 42 41 41 42 41 40 40 40 41 42 40 37 38 36 33 34 35 35 36 38 40 42 43 44 44 44 45 45 46 47 47 47 45 43 41 39 39 38 37 37 36 35 34 33 32 32 31 31 31 31 31 30 29 29 29 28 28 28
42 40 39 38 38 38 37 35 35 36 37 39 40 40 39 39 39 42 43 42 42 43 43 43 43 43 44 44 44 43 43 42 41 39 40 41 42 42 41 40 39 36 34 34 35 34 34 38 41 42 44 45 46 46 47 47 47 47 47 45 43 42 41 40 40 39 39 38 37 36 35 35 34 33 33 33 33 33 32 31 31 30 30 30 30
41 40 39 37 36 37 36 35 35 35 35 37 39 41 42 40 39 39 40 41 42 42 43 44 44 45 45 45 45 45 45 44 42 40 42 43 43 44 43 41 40 38 36 34 34 33 34 37 39 41 44 45 46 47 47 46 46 46 46 44 43 42 42 42 42 41 40 39 38 38 37 37 36 36 35 35 36 35 35 34 33 33 32 32 32
41 40 39 38 37 36 37 36 35 35 35 36 38 41 43 43 42 40 40 42 43 44 44 44 44 45 46 46 45 45 45 46 44 42 42 43 44 45 44 42 42 41 38 34 33 32 34 36 37 40 43 45 46 46 46 45 44 44 43 42 42 42 43 43 43 42 41 41 40 39 39 39 38 38 37 37 37 37 37 36 36 35 35 35 34
40 39 39 39 38 38 37 38 36 36 36 36 38 41 43 44 44 44 43 44 45 45 45 45 44 44 46 46 46 45 45 46 46 44 42 43 44 45 45 44 44 44 40 37 35 34 36 35 35 37 41 44 45 44 43 43 44 44 43 42 42 43 44 44 43 43 42 42 42 41 41 41 40 40 39 38 38 38 38 38 39 39 38 37 37
40 40 40 40 40 39 38 38 37 36 36 37 38 40 43 44 44 45 45 45 45 45 45 45 44 44 44 45 45 44 45 45 46 45 44 43 44 45 46 46 46 46 44 42 38 36 37 35 34 36 39 42 43 43 42 42 43 43 42 42 43 44 44 44 43 44 44 44 43 43 42 42 41 40 39 39 39 39 39 39 40 40 39 39 39
40 40 40 40 40 39 38 38 38 38 37 37 38 38 41 43 44 44 44 44 44 44 44 44 43 43 43 44 43 43 43 44 45 45 44 44 44 45 46 47 48 48 47 46 42 38 38 37 35 37 37 37 39 40 41 42 43 43 43 43 43 43 44 45 45 45 45 45 44 43 42 41 40 39 39 39 39 38 38 38 38 38 38 38 38
39 38 38 37 37 37 37 37 38 39 39 38 38 38 38 40 42 43 43 43 43 43 43 43 43 42 42 44 44 43 43 44 44 44 44 44 45 46 46 47 48 48 48 48 43 40 40 39 36 36 35 34 34 36 39 41 42 42 42 42 42 42 43 43 44 43 42 41 41 40 39 38 37 37 37 37 37 37 37 36 36 36 37 37 37
38 37 36 35 35 36 37 37 37 38 38 37 37 38 37 37 39 41 42 42 42 42 42 42 42 42 41 43 44 44 45 45 45 45 45 45 46 46 46 47 47 47 48 48 45 41 41 41 38 37 35 33 32 33 35 37 38 39 39 38 38 38 38 38 38 37 36 36 36 36 36 36 35 35 35 34 34 34 34 34 35 35 35 35 35
36 36 35 34 34 35 36 36 35 35 36 36 37 38 36 34 35 38 39 40 40 40 40 40 42 42 41 42 44 45 45 46 46 46 46 46 47 46 47 47 47 46 47 47 46 44 43 43 41 38 36 33 31 33 34 35 36 35 34 34 34 33 33 33 33 33 34 34 33 34 34 34 34 33 32 32 32 32 32 32 32 33 33 33 34
34 34 34 34 34 35 35 34 33 33 32 33 34 35 34 32 32 35 37 38 39 39 39 39 41 42 41 41 43 44 46 46 46 46 47 47 47 47 46 47 47 46 47 47 47 46 46 46 44 40 37 35 33 34 35 35 34 32 32 32 32 31 31 31 32 33 33 33 33 33 33 33 33 32 32 31 31 31 31 30 31 32 32 33 33
33 32 33 34 34 33 32 31 31 31 30 31 32 33 33 32 32 33 35 37 37 36 36 38 39 40 40 41 43 44 45 46 45 46 46 46 47 47 46 46 47 47 47 47 47 48 49 48 45 43 40 37 35 35 35 35 34 32 31 31 31 31 31 31 33 34 34 33 33 33 33 33 32 32 32 31 31 31 30 30 31 32 32 33 33
32 32 32 34 35 34 32 31 30 29 28 29 30 31 32 32 31 32 33 35 36 35 34 35 37 38 39 40 41 42 44 45 45 45 46 46 47 47 46 47 47 48 48 47 47 49 50 49 47 46 42 39 37 35 34 35 35 33 31 31 30 30 31 33 33 33 33 33 33 33 33 33 32 32 31 31 31 31 31 31 31 32 32 33 33
32 32 32 34 35 35 32 30 28 27 27 28 28 28 30 30 29 29 30 32 34 35 34 35 36 36 37 39 40 41 43 44 44 44 45 47 47 47 47 48 49 49 49 48 48 50 52 51 50 48 44 41 39 37 35 35 35 34 32 31 30 31 32 34 33 33 33 32 32 32 32 33 33 32 32 31 32 32 32 32 32 32 33 33 32
32 32 32 33 34 34 32 28 26 27 27 27 28 26 26 27 28 29 30 31 33 33 33 34 35 36 37 38 39 39 41 42 43 44 45 47 47 46 47 49 49 50 49 48 48 50 52 53 52 50 47 44 41 38 36 34 33 33 33 33 32 32 33 33 32 32 32 30 30 30 31 33 33 33 33 32 32 32 32 32 32 33 33 33 33
32 32 32 31 32 33 32 29 27 29 28 26 26 25 24 25 27 30 32 32 31 31 32 33 34 35 36 38 38 38 39 40 42 43 45 47 46 45 46 48 49 49 49 47 47 49 53 55 54 52 49 46 43 40 36 33 31 33 35 36 34 33 34 33 31 31 30 28 28 28 29 31 32 32 33 33 33 33 33 33 34 34 34 34 34
33 33 33 32 31 31 32 31 29 29 28 26 25 25 25 24 25 27 30 32 32 30 29 30 32 33 35 37 37 37 38 39 41 43 45 46 45 44 44 46 47 48 48 46 46 48 53 56 56 54 51 48 45 42 38 34 33 34 37 38 36 34 35 33 31 30 29 28 27 26 27 28 29 30 31 32 32 33 33 34 34 35 35 35 34
32 33 33 32 31 31 31 31 29 28 28 28 26 24 25 25 24 23 25 30 32 29 28 28 29 32 34 35 36 38 38 39 40 41 42 44 45 45 45 46 47 48 48 46 45 47 52 56 56 55 53 49 46 44 42 38 36 35 37 39 38 36 36 33 30 30 30 30 28 26 25 26 27 28 29 30 31 31 32 33 34 35 35 35 33
31 32 33 32 31 30 30 30 30 28 26 26 26 25 25 25 24 22 21 26 30 29 29 29 29 31 33 34 36 38 38 39 40 40 41 43 45 46 47 47 47 49 48 45 44 46 50 54 57 55 53 50 48 47 45 43 40 37 38 40 39 37 36 33 31 31 33 32 28 25 25 27 28 28 29 30 29 30 31 32 34 35 35 34 33
31 31 32 32 30 29 29 29 29 27 24 23 24 27 27 25 25 24 21 22 26 28 29 29 28 29 32 34 36 37 39 40 41 41 42 43 45 47 49 48 48 49 48 46 44 45 47 51 55 55 53 52 51 48 48 48 46 42 40 41 40 38 36 34 32 34 35 33 30 27 27 29 29 29 29 30 30 30 31 33 34 36 36 35 34
29 30 31 31 30 28 27 27 27 25 22 21 22 26 27 25 24 24 22 21 23 26 27 27 27 29 31 33 34 35 37 39 40 40 41 43 46 47 48 48 47 47 48 46 44 44 46 49 52 53 55 55 52 49 50 51 50 46 43 41 40 38 37 36 35 36 36 35 33 30 28 30 30 29 30 31 31 32 33 34 35 36 36 35 33
28 29 30 30 29 28 27 26 26 23 21 22 22 23 26 26 23 22 23 21 21 22 22 23 24 26 28 30 31 32 34 35 36 36 37 40 44 46 47 47 45 45 46 45 44 43 44 46 49 53 56 55 50 49 50 51 51 49 46 43 40 38 38 38 38 38 38 37 35 32 31 31 30 29 31 32 32 33 33 34 35 36 35 34 33
28 28 30 30 29 28 27 26 26 23 21 24 24 22 23 25 22 19 20 20 20 21 21 22 23 24 24 26 28 29 31 33 32 32 34 36 41 44 45 44 43 44 46 45 44 43 41 41 45 50 53 52 49 48 50 51 50 49 48 45 42 40 40 41 40 39 39 39 37 34 32 32 31 30 30 31 31 32 32 32 34 35 34 34 34
27 27 29 29 28 27 26 26 26 25 24 25 25 22 20 22 21 17 16 17 20 23 24 24 23 22 22 24 26 28 29 31 31 31 32 34 38 41 43 42 40 42 45 46 46 46 43 41 44 48 50 49 48 49 50 50 48 48 49 47 43 42 42 43 42 42 42 41 39 36 34 34 33 31 30 30 31 31 30 31 32 34 34 33 34
25 26 28 28 27 26 26 26 26 27 26 26 26 24 19 18 17 14 12 12 17 23 26 26 23 21 21 24 26 27 27 27 29 31 31 32 34 36 39 40 39 40 43 45 46 47 46 44 44 46 47 48 49 50 49 48 48 48 48 46 44 44 43 42 42 43 43 41 40 38 36 36 35 32 31 31 31 32 31 31 31 33 33 33 34
23 25 26 26 25 24 25 26 26 27 28 27 26 25 21 17 15 15 16 14 15 18 22 23 21 20 22 24 25 26 26 26 26 27 27 28 30 32 33 35 37 39 42 45 46 46 47 47 46 46 47 48 49 49 49 49 48 47 46 46 45 44 43 43 44 44 42 42 41 40 38 37 36 35 33 33 33 34 34 33 33 33 33 33 34
Wind_Direction
283 277 275 278 280 277 271 266 267 267 267 268 271 275 277 277 279 284 290 290 278 255 241 238 239 240 240 238 237 237 236 233 230 229 229 228 228 229 232 233 233 232 230 227 224 223 222 221 223 226 225 229 237 243 249 253 251 247 239 233 228 210 189 179 171 161 152 132 116 106 92 82 72 60 49 40 37 35 32 28 24 20 18 16 15
267 265 269 273 275 274 268 259 256 257 259 263 265 267 269 269 271 275 282 290 286 267 248 240 238 238 239 239 239 239 239 239 237 235 234 233 231 230 231 233 234 233 232 230 227 225 223 222 222 224 225 227 232 237 243 248 249 245 238 234 234 233 223 204 191 184 183 169 143 125 106 87 74 63 52 43 40 38 34 29 25 21 19 17 17
266 259 261 266 270 272 267 257 251 251 253 257 260 261 261 262 264 267 271 280 286 277 259 247 241 239 239 239 239 240 240 241 241 241 240 239 237 235 233 233 233 233 232 232 230 227 224 223 222 222 223 225 229 233 237 242 246 244 240 235 231 238 242 232 214 198 194 192 184 163 130 92 73 65 57 48 42 41 36 31 27 24 22 20 19
278 270 264 262 264 267 264 260 256 251 255 264 270 270 266 261 260 262 265 268 274 277 268 256 247 242 240 239 239 239 240 241 243 243 243 243 242 241 238 235 233 232 231 231 231 229 226 224 224 223 222 223 225 228 232 237 242 243 242 238 234 234 241 248 243 224 209 203 204 202 192 143 72 61 57 52 46 44 40 34 30 29 28 25 22
282 278 270 265 263 264 264 262 257 253 259 270 275 277 275 270 263 261 262 263 264 267 266 258 251 245 241 240 239 239 240 240 242 243 245 246 246 244 243 239 234 231 230 230 231 230 228 225 224 224 223 222 223 224 227 232 237 241 243 242 242 238 237 247 252 248 239 227 224 226 227 232 225 52 52 47 45 46 42 37 35 35 34 31 27
284 279 271 265 263 265 266 263 257 256 260 265 268 271 272 274 272 267 263 261 260 261 261 256 250 246 242 239 239 239 240 240 241 243 244 246 246 245 243 240 235 230 228 229 231 230 229 226 224 224 223 222 222 222 223 226 231 236 240 243 245 245 244 245 249 254 255 251 246 247 251 256 266 336 33 28 36 46 46 42 41 40 38 35 32
289 283 274 267 263 264 266 266 262 260 260 260 262 266 267 269 273 273 268 262 259 258 258 256 253 253 251 246 243 242 241 241 241 242 243 244 245 244 242 239 236 231 226 227 229 230 229 227 225 224 223 222 222 222 221 221 224 230 235 239 243 247 250 251 251 255 259 262 263 263 268 276 284 290 298 329 2 35 46 47 44 42 39 37 35
290 285 280 272 265 262 263 265 264 263 263 265 266 268 270 268 268 272 270 264 260 257 256 256 254 255 254 251 247 246 245 245 244 243 243 243 242 241 240 239 237 233 227 225 227 229 230 228 226 224 223 222 222 222 220 218 219 224 230 235 239 243 248 251 253 256 259 264 269 271 275 281 287 287 281 284 309 347 27 42 43 42 38 36 36
288 284 281 280 275 267 263 263 264 264 266 268 269 271 274 271 266 266 266 264 262 259 258 257 256 253 251 250 246 245 246 247 246 244 242 241 239 239 239 238 237 235 229 225 225 228 228 228 227 225 224 223 223 223 221 218 217 220 225 230 236 240 244 247 251 254 257 260 264 267 269 273 277 281 281 281 289 307 331 9 32 36 31 28 30
287 284 281 281 281 278 271 266 265 266 268 268 267 269 272 269 263 262 262 262 262 260 259 259 257 254 251 251 249 247 247 248 249 248 245 242 238 236 237 238 237 236 233 227 224 226 227 227 226 225 224 224 224 224 222 220 217 219 223 226 231 235 240 244 247 251 253 256 258 260 261 262 265 271 275 276 279 287 301 319 346 7 12 11 16
290 288 284 280 279 280 276 270 268 269 269 266 263 266 269 267 263 261 262 261 261 260 259 257 256 254 252 251 250 250 249 248 248 249 248 245 241 236 235 236 236 236 235 230 226 225 225 225 225 224 223 223 224 224 223 222 219 220 223 225 227 231 235 240 244 247 249 252 255 256 257 257 258 261 265 269 272 276 283 291 306 322 336 343 349
289 289 286 281 278 278 278 275 270 270 269 263 259 263 266 268 267 264 263 260 258 258 256 253 253 254 254 251 248 248 249 249 249 249 248 245 242 238 234 234 234 235 235 232 228 226 225 225 224 223 223 223 224 224 224 223 222 221 223 225 227 228 231 236 240 244 246 248 251 254 257 258 258 258 259 260 264 268 271 276 283 292 302 309 315
288 287 286 284 281 278 276 276 272 269 267 260 256 258 263 268 268 267 265 260 255 254 254 252 251 253 254 250 247 248 250 252 253 253 253 248 243 239 235 233 232 234 234 233 230 227 226 226 224 223 222 223 223 224 224 225 224 224 224 225 227 229 230 233 237 241 243 244 246 249 254 257 259 259 258 258 259 262 265 270 273 278 284 291 296
287 287 286 285 284 280 275 273 271 266 262 259 257 256 259 264 267 268 268 263 256 253 253 252 250 249 252 253 251 250 250 251 252 255 257 253 246 242 238 235 234 235 235 234 231 229 227 228 227 225 223 222 223 223 224 225 226 226 226 226 227 229 230 232 235 238 240 241 242 244 248 252 255 256 257 257 258 260 263 266 269 272 275 279 285
290 288 288 286 284 282 278 274 271 266 261 260 261 260 258 259 262 265 266 264 259 254 251 250 249 248 250 255 255 251 249 249 247 249 253 253 251 247 242 239 236 236 237 235 233 231 228 228 228 227 225 223 222 222 223 225 227 228 228 227 227 228 230 232 233 236 238 240 241 242 245 248 251 253 255 256 257 259 260 263 265 268 269 272 276
295 292 290 289 287 284 281 278 275 271 265 262 261 261 260 259 260 260 261 262 259 256 253 250 250 250 249 251 254 252 250 249 247 246 250 252 253 250 245 242 238 237 236 235 234 232 229 227 228 228 227 226 224 223 224 225 227 229 229 229 229 229 231 232 233 235 237 239 241 243 245 249 252 254 256 256 257 258 259 261 262 263 265 267 271
298 296 293 292 291 287 284 281 277 274 271 267 263 261 260 259 260 261 261 261 256 256 257 255 253 252 249 249 251 251 248 250 250 249 249 249 249 249 246 245 242 238 235 233 234 234 230 227 227 228 227 226 226 225 225 226 228 229 230 230 230 230 231 232 234 236 238 240 241 243 246 249 253 255 258 259 260 261 260 260 260 261 262 264 268
297 296 295 295 293 291 288 283 277 275 275 272 266 263 259 255 257 260 261 259 255 255 256 255 254 253 251 250 250 248 246 249 252 251 248 247 247 248 246 245 243 241 237 233 233 233 231 228 227 227 227 226 226 226 226 227 228 229 229 230 231 231 231 233 235 237 239 241 243 245 247 249 252 255 258 261 263 264 263 261 260 260 262 263 265
295 294 295 296 294 292 290 286 280 276 273 272 268 264 260 255 255 258 257 256 255 255 254 252 253 254 252 251 250 248 247 250 253 253 251 247 246 247 246 245 242 240 238 233 232 232 230 228 228 228 228 228 227 227 227 228 229 229 230 231 231 232 232 234 236 238 240 242 244 246 248 250 253 255 257 260 263 265 266 265 263 261 262 262 263
295 294 294 294 294 292 290 287 284 279 272 267 266 265 262 259 258 258 258 257 256 254 252 251 251 251 250 250 250 250 249 250 252 252 250 246 244 244 245 245 242 238 236 233 231 232 231 229 228 229 230 230 229 229 229 229 229 230 230 232 233 233 233 234 236 238 240 243 245 247 249 252 254 256 257 259 261 263 265 265 265 263 263 263 263
298 296 294 293 292 291 289 287 285 281 273 265 264 264 262 259 257 256 256 257 257 255 253 252 252 251 250 249 251 252 251 250 249 248 247 243 241 242 242 241 241 238 235 231 230 231 232 230 229 229 231 232 233 232 232 232 232 231 232 233 234 234 234 235 236 238 241 244 247 249 251 253 255 256 257 258 259 261 263 264 264 264 264 265 265
300 298 294 291 290 288 287 286 283 281 276 268 263 260 256 253 254 254 252 252 253 253 254 255 255 254 253 251 252 253 252 250 249 248 247 244 241 241 241 239 238 237 235 232 230 231 233 233 231 230 231 233 235 235 234 234 234 234 234 234 235 236 236 237 238 239 242 244 247 250 252 254 256 257 257 258 259 260 261 262 263 264 264 265 266
301 298 294 290 289 287 286 284 281 279 275 268 264 259 252 250 252 253 251 250 250 250 252 254 255 254 254 252 252 252 252 250 249 248 247 244 240 239 241 240 237 235 235 233 231 231 233 236 236 234 233 233 234 236 236 236 235 235 236 236 237 237 238 239 240 241 243 245 247 250 252 255 256 257 258 258 259 260 261 262 263 264 264 264 266
302 298 294 291 288 286 284 281 278 277 273 268 265 261 255 253 252 250 247 249 251 252 251 252 252 252 252 251 250 250 250 250 249 247 244 242 239 237 241 243 239 235 235 233 230 230 232 234 236 236 236 235 234 235 237 237 237 237 237 237 237 238 239 240 241 243 244 245 247 249 251 253 255 257 258 258 258 259 261 262 263 263 263 264 265
302 298 295 292 289 286 284 281 277 275 273 269 263 259 257 255 253 250 247 248 251 253 252 251 251 251 250 249 248 248 248 249 249 246 242 240 238 236 239 242 241 236 235 234 230 229 230 232 233 235 236 236 236 235 236 237 238 238 238 238 238 239 240 241 243 244 245 246 248 249 251 252 254 255 256 257 256 257 258 259 261 262 263 264 265
303 300 296 293 290 287 284 281 277 274 272 270 264 257 255 254 251 249 247 247 248 249 250 251 251 250 249 248 247 247 248 247 246 244 242 240 239 236 235 239 241 237 235 234 232 231 231 232 233 234 235 236 236 236 235 236 237 238 239 239 240 241 242 244 245 246 247 248 249 251 252 253 255 256 256 256 256 256 257 258 260 261 263 264 265
304 301 298 295 291 289 285 282 278 274 270 267 264 259 255 253 251 248 247 248 248 248 248 249 250 249 247 247 246 246 247 245 243 240 239 240 239 236 234 235 239 238 235 233 232 232 233 234 234 234 234 235 236 237 237 237 237 239 240 241 242 244 244 245 247 248 248 250 251 253 254 256 257 258 258 258 257 257 257 258 260 262 263 264 265
305 302 300 297 294 291 289 286 281 277 271 265 261 258 254 251 250 248 248 249 249 248 248 248 248 247 245 245 245 245 245 243 240 237 237 238 237 236 234 233 235 237 236 234 232 232 233 236 237 236 235 235 236 237 238 239 239 240 242 243 244 246 247 248 249 250 251 252 253 254 256 257 259 260 260 260 259 258 258 259 260 262 264 265 266
306 303 301 299 296 293 292 290 286 282 277 269 261 257 254 251 248 247 247 249 249 248 247 247 247 246 245 243 243 243 243 241 239 238 239 238 236 235 234 232 231 234 237 236 234 234 235 236 237 238 237 236 236 238 239 240 241 242 243 244 245 247 248 249 251 252 253 254 255 256 257 258 259 260 260 260 260 260 260 261 261 263 264 266 266
306 304 302 300 297 295 293 291 288 285 281 276 268 259 254 250 247 246 247 249 249 249 248 247 246 246 245 243 242 242 242 240 239 239 239 238 236 234 234 232 231 233 236 238 236 236 238 239 239 240 239 238 237 237 238 239 239 241 242 244 246 247 249 251 252 254 255 256 257 258 258 260 260 261 261 261 261 261 261 261 262 263 264 265 265
307 305 303 300 298 295 293 290 287 284 281 279 274 266 258 253 248 246 247 248 249 249 249 248 246 245 244 244 243 242 242 240 239 239 238 237 236 235 234 233 233 233 235 238 237 236 239 241 241 241 240 238 237 236 236 237 238 239 242 245 247 248 250 252 253 255 256 256 257 258 260 261 261 261 262 261 261 261 261 261 261 262 262 263 263
307 305 303 301 299 296 293 289 287 284 281 278 276 271 263 256 251 248 247 247 248 248 248 247 246 244 244 245 244 242 242 241 239 238 237 237 238 237 236 234 234 233 234 237 237 235 238 240 240 241 240 238 236 235 235 237 238 241 243 246 248 249 250 252 254 255 256 256 257 258 260 261 261 262 262 262 262 262 262 262 262 262 262 262 262
309 307 304 301 298 295 292 289 287 284 282 278 275 272 266 259 254 250 248 247 247 246 246 246 246 244 244 245 244 242 242 242 239 237 238 239 239 238 237 235 234 234 235 237 236 233 236 239 239 240 240 237 235 234 234 236 239 242 244 246 247 249 250 252 253 254 255 255 255 256 257 258 259 261 263 263 263 262 262 262 262 263 263 263 262
312 309 306 302 299 297 295 292 289 286 283 278 274 271 267 261 256 253 250 249 248 246 245 244 244 243 242 243 242 241 241 240 238 237 238 240 240 239 238 236 235 234 234 235 234 232 234 238 238 238 239 237 235 234 234 236 238 239 241 243 245 247 249 251 252 253 253 253 254 255 256 257 259 261 262 263 262 262 262 262 263 264 264 263 262
314 311 308 306 304 302 299 297 294 289 284 279 274 270 268 263 258 255 252 250 249 248 246 243 241 241 240 240 241 241 241 239 237 235 236 238 240 239 238 237 235 234 234 234 233 231 233 237 238 237 238 238 236 234 234 235 236 237 238 241 245 248 250 252 253 253 254 254 255 256 258 259 260 261 261 262 261 261 260 261 263 264 264 264 262
314 312 310 310 309 306 302 299 297 292 286 280 275 271 269 266 260 256 253 251 249 248 246 244 242 241 241 241 241 241 241 239 236 235 235 237 240 240 238 237 236 235 234 233 232 230 231 235 238 238 238 238 236 235 235 235 237 238 239 241 245 248 250 252 254 255 256 257 258 259 259 259 260 261 261 261 260 259 259 260 263 265 265 263 260
316 314 313 313 312 310 306 302 298 294 287 280 275 273 273 270 263 257 253 251 250 247 244 243 242 241 241 241 241 241 241 239 236 235 236 237 240 240 239 238 237 236 235 233 231 230 229 232 237 240 240 238 238 238 237 237 237 238 239 241 243 246 248 251 252 254 256 258 259 259 258 258 258 260 261 261 259 258 259 261 264 265 264 261 260
318 316 315 314 314 313 310 304 298 293 287 279 274 276 280 276 265 258 253 250 250 249 244 243 242 241 241 240 239 238 240 240 237 236 237 238 240 240 239 239 239 238 236 234 232 229 227 229 234 239 240 239 239 239 239 238 238 238 239 240 242 245 247 249 250 252 255 257 258 258 257 257 258 259 260 260 259 258 259 261 264 264 262 260 259
321 319 317 316 317 315 310 306 302 295 289 283 279 281 284 279 267 258 252 248 249 250 247 244 242 240 239 237 236 236 238 239 237 235 237 238 239 239 239 239 239 237 235 233 231 228 226 226 230 235 239 240 240 240 240 239 238 239 240 240 241 244 246 248 249 251 254 255 256 256 256 256 257 258 260 259 258 258 259 260 261 262 261 260 259
322 321 319 318 318 315 309 309 312 309 299 288 282 282 283 281 272 261 252 248 248 247 246 243 240 238 235 234 234 235 236 237 236 234 235 237 238 238 238 238 238 236 234 232 230 228 225 224 227 232 236 239 240 240 240 240 240 241 240 239 239 242 245 247 248 250 252 253 253 255 255 255 255 256 258 258 258 258 258 259 260 260 259 258 258
321 322 321 318 317 316 310 306 308 312 307 293 281 276 275 276 274 266 255 249 247 245 243 241 239 236 235 234 235 235 235 235 235 233 233 234 236 238 238 238 237 236 234 232 230 227 224 223 225 228 233 238 240 240 239 240 240 239 239 237 237 240 245 246 245 246 248 249 250 251 253 255 256 256 257 257 257 257 258 258 259 258 257 256 256
318 320 321 319 316 316 314 308 303 304 304 297 288 281 278 275 272 267 258 247 242 241 242 242 240 237 235 235 234 234 235 236 236 235 233 234 235 237 239 239 238 237 237 235 231 227 225 223 224 226 229 234 238 240 240 239 238 236 237 237 237 239 242 244 243 243 244 245 247 249 252 254 256 257 258 257 256 256 256 256 257 258 257 255 254
314 317 319 319 317 316 316 311 305 301 298 296 295 290 287 282 274 268 258 244 236 234 238 241 240 238 236 236 236 236 236 237 237 236 235 235 236 237 239 239 238 238 238 238 234 228 224 223 223 225 227 230 234 238 239 239 238 236 236 236 236 236 239 241 241 240 241 241 242 246 250 253 254 255 256 256 255 255 255 255 256 257 257 256 255
310 313 316 318 317 316 316 311 306 300 293 293 296 293 289 286 278 269 259 244 235 233 237 238 238 238 237 236 236 237 237 238 238 236 236 237 238 239 240 239 237 236 237 239 236 229 224 223 223 224 225 226 230 234 237 239 239 237 236 235 234 235 237 239 239 239 241 242 241 242 246 250 252 252 254 255 255 255 255 254 253 255 256 256 254
308 311 313 315 316 316 316 312 305 298 288 290 300 298 292 289 282 273 263 248 239 239 241 240 239 240 239 238 238 238 238 239 239 239 239 241 241 241 241 240 236 234 234 236 236 230 225 223 222 223 223 223 226 231 235 238 239 238 236 235 234 234 235 237 238 238 241 244 245 242 243 247 251 253 254 255 256 256 255 253 252 252 254 254 252
306 309 310 312 314 315 316 313 305 294 284 286 300 303 296 292 285 274 266 256 247 244 244 244 245 246 245 243 241 239 239 240 241 242 241 242 243 243 243 242 238 233 232 233 233 231 229 226 223 222 222 223 225 229 235 238 239 239 237 235 234 233 233 235 237 238 240 244 245 243 243 246 250 253 256 257 257 258 256 253 251 250 251 252 251
305 307 308 310 312 313 316 315 306 294 282 281 296 308 302 295 289 276 268 263 255 248 247 249 251 252 250 246 241 238 238 239 240 241 241 240 240 241 242 242 239 234 229 228 229 230 231 230 225 222 221 222 224 229 235 239 239 239 239 237 234 232 231 234 237 239 240 243 244 244 243 244 248 253 256 258 260 259 255 251 249 248 249 250 250
304 306 306 308 310 312 314 315 309 299 288 283 293 309 310 303 295 281 272 266 256 248 249 253 255 256 251 243 238 235 235 236 238 239 238 237 236 239 240 241 239 233 227 224 224 225 225 224 220 218 218 220 223 228 233 236 237 238 239 238 235 231 231 233 236 239 242 243 243 243 243 244 247 252 256 260 261 257 252 248 246 246 248 249 249
303 304 305 306 310 311 312 314 311 305 299 294 296 305 314 311 302 286 273 267 257 250 252 254 255 256 250 240 237 237 235 235 236 237 237 235 235 238 240 240 238 232 225 223 222 222 221 218 215 215 217 220 224 228 231 234 236 237 238 238 236 234 233 234 237 240 243 244 244 244 244 244 246 251 257 261 260 254 249 247 246 246 246 247 248
302 302 303 305 309 310 310 311 312 309 306 305 304 304 307 308 300 277 256 261 262 254 252 253 252 252 248 240 237 237 234 231 233 236 236 234 235 238 240 240 236 229 224 223 223 223 223 221 218 218 220 222 225 229 232 234 236 238 239 238 237 236 235 236 237 239 242 244 244 245 246 246 247 250 256 262 260 252 248 248 248 247 246 246 246
301 300 301 303 306 308 308 308 311 312 310 311 311 308 304 304 293 264 246 254 265 254 244 244 245 247 249 245 239 236 232 229 232 235 233 233 233 234 237 237 231 224 221 223 224 224 223 222 221 221 223 226 228 230 232 235 237 238 239 238 237 237 236 236 237 239 241 243 244 246 248 249 249 251 256 260 257 250 247 249 250 249 248 247 247
Height
5912 5912 5912 5911 5910 5910 5909 5908 5908 5908 5907 5907 5907 5906 5906 5907 5907 5906 5906 5905 5904 5904 5904 5905 5906 5907 5909 5910 5911 5912 5914 5915 5916 5916 5917 5918 5919 5920 5922 5923 5925 5925 5926 5927 5927 5928 5929 5930 5931 5932 5933 5934 5935 5936 5937 5937 5938 5938 5938 5938 5938 5937 5937 5937 5936 5936 5935 5935 5935 5935 5935 5935 5935 5935 5935 5935 5935 5935 5935 5934 5934 5934 5934 5933 5933
5910 5910 5910 5909 5908 5908 5907 5906 5906 5906 5905 5905 5905 5905 5905 5905 5905 5905 5905 5904 5903 5902 5902 5902 5904 5905 5906 5907 5909 5910 5911 5912 5914 5915 5915 5916 5917 5918 5919 5921 5922 5924 5925 5925 5926 5926 5927 5928 5929 5930 5932 5933 5934 5935 5936 5937 5937 5938 5938 5938 5938 5938 5937 5937 5936 5936 5936 5935 5935 5935 5935 5935 5935 5935 5934 5934 5934 5934 5934 5934 5934 5933 5933 5933 5933
5907 5907 5907 5907 5906 5906 5905 5904 5903 5903 5903 5903 5903 5903 5903 5903 5903 5903 5903 5903 5902 5901 5900 5900 5901 5903 5904 5905 5906 5907 5909 5910 5911 5913 5913 5914 5915 5916 5917 5918 5920 5922 5923 5924 5924 5925 5925 5926 5927 5928 5930 5931 5932 5934 5935 5935 5936 5937 5937 5937 5937 5937 5937 5937 5936 5936 5936 5936 5935 5935 5935 5935 5935 5934 5934 5934 5934 5934 5934 5934 5933 5933 5933 5933 5932
5906 5905 5905 5904 5904 5904 5903 5903 5902 5902 5902 5902 5902 5902 5901 5901 5901 5901 5901 5901 5901 5900 5899 5899 5899 5900 5901 5902 5904 5905 5906 5907 5909 5910 5911 5912 5913 5914 5915 5916 5917 5919 5920 5922 5922 5923 5924 5925 5925 5927 5928 5929 5931 5932 5933 5934 5935 5936 5936 5936 5937 5937 5937 5937 5937 5936 5936 5936 5936 5935 5935 5935 5935 5934 5934 5934 5933 5933 5933 5933 5933 5933 5933 5933 5932
5903 5903 5903 5902 5902 5902 5901 5901 5901 5900 5900 5899 5899 5899 5899 5899 5899 5899 5899 5899 5899 5898 5897 5897 5897 5898 5899 5900 5901 5902 5903 5905 5906 5907 5909 5910 5911 5912 5913 5914 5915 5916 5918 5919 5920 5921 5922 5923 5924 5925 5926 5927 5929 5930 5931 5932 5933 5934 5935 5936 5936 5936 5936 5936 5936 5936 5936 5936 5935 5935 5935 5935 5935 5934 5934 5933 5933 5933 5933 5933 5933 5933 5933 5933 5932
5900 5899 5899 5900 5900 5900 5899 5899 5899 5898 5897 5896 5896 5896 5897 5897 5897 5897 5897 5897 5897 5897 5896 5895 5895 5896 5897 5898 5899 5899 5900 5902 5903 5905 5906 5907 5908 5909 5910 5911 5912 5913 5915 5916 5918 5919 5920 5921 5922 5923 5924 5925 5927 5928 5929 5930 5931 5933 5933 5934 5935 5935 5935 5936 5936 5936 5936 5936 5935 5935 5935 5935 5935 5934 5934 5934 5933 5933 5933 5933 5933 5933 5933 5932 5932
5897 5896 5896 5896 5896 5897 5897 5896 5897 5896 5895 5894 5893 5893 5893 5894 5894 5894 5894 5894 5895 5894 5894 5893 5894 5895 5895 5896 5897 5897 5898 5899 5900 5901 5903 5904 5905 5906 5907 5908 5909 5910 5912 5913 5915 5917 5918 5919 5919 5921 5922 5923 5924 5926 5927 5928 5930 5931 5932 5933 5933 5934 5934 5935 5935 5935 5935 5935 5935 5935 5935 5935 5935 5934 5934 5934 5933 5933 5933 5933 5933 5933 5932 5932 5932
5895 5894 5893 5892 5892 5893 5893 5893 5893 5894 5893 5892 5891 5891 5891 5891 5891 5891 5891 5891 5891 5892 5891 5892 5892 5893 5893 5893 5894 5895 5895 5896 5897 5898 5899 5901 5902 5903 5904 5905 5906 5907 5909 5910 5912 5914 5915 5916 5917 5918 5920 5921 5922 5924 5925 5926 5927 5929 5930 5931 5932 5932 5933 5933 5934 5934 5934 5934 5934 5934 5934 5935 5935 5934 5934 5934 5933 5933 5933 5933 5932 5932 5932 5932 5932
5892 5892 5891 5890 5889 5889 5889 5889 5889 5890 5890 5890 5889 5888 5888 5888 5888 5888 5888 5888 5888 5888 5889 5890 5890 5890 5890 5891 5891 5891 5892 5893 5894 5895 5896 5897 5898 5899 5900 5901 5903 5904 5906 5907 5909 5911 5913 5914 5915 5917 5918 5919 5920 5921 5923 5924 5925 5926 5928 5929 5930 5930 5931 5932 5932 5933 5933 5933 5934 5934 5934 5934 5934 5934 5934 5934 5933 5933 5933 5933 5932 5932 5932 5932 5932
5888 5889 5889 5888 5886 5886 5885 5885 5885 5885 5886 5886 5886 5885 5885 5885 5885 5885 5884 5885 5885 5885 5886 5887 5887 5887 5888 5889 5889 5889 5889 5890 5891 5892 5893 5894 5895 5896 5897 5899 5900 5902 5903 5904 5906 5908 5910 5912 5913 5914 5916 5917 5918 5919 5920 5921 5923 5924 5925 5927 5928 5928 5929 5930 5931 5931 5932 5932 5932 5933 5933 5933 5933 5934 5934 5934 5933 5933 5933 5932 5932 5932 5932 5932 5932
5884 5884 5885 5885 5884 5883 5882 5881 5881 5881 5881 5881 5882 5882 5881 5881 5881 5881 5881 5882 5882 5882 5883 5884 5884 5884 5885 5886 5887 5887 5887 5887 5888 5889 5890 5891 5892 5893 5894 5896 5897 5899 5900 5901 5903 5905 5907 5909 5911 5912 5913 5914 5916 5917 5918 5920 5920 5922 5923 5924 5926 5926 5927 5928 5929 5930 5930 5931 5931 5931 5932 5932 5932 5933 5933 5933 5933 5933 5932 5932 5932 5932 5932 5932 5932
5880 5880 5880 5881 5881 5880 5878 5878 5877 5877 5877 5877 5878 5878 5877 5877 5878 5878 5879 5879 5879 5879 5879 5879 5880 5881 5882 5883 5884 5885 5884 5885 5885 5885 5886 5887 5888 5889 5891 5892 5894 5895 5897 5898 5900 5902 5904 5906 5907 5909 5910 5912 5913 5915 5916 5918 5918 5919 5921 5922 5924 5925 5925 5926 5927 5928 5929 5929 5930 5930 5931 5931 5931 5931 5932 5932 5932 5932 5932 5932 5932 5932 5932 5932 5932
5877 5876 5876 5876 5876 5876 5875 5874 5874 5874 5874 5873 5873 5873 5873 5874 5874 5875 5876 5876 5876 5876 5875 5876 5877 5878 5878 5879 5881 5882 5882 5882 5882 5882 5882 5883 5884 5886 5887 5889 5890 5891 5893 5895 5897 5899 5901 5903 5904 5906 5908 5909 5911 5912 5914 5915 5916 5917 5918 5920 5922 5923 5924 5924 5925 5926 5927 5927 5928 5928 5929 5929 5930 5930 5930 5931 5931 5931 5931 5931 5931 5931 5931 5931 5932
5874 5872 5872 5872 5872 5872 5872 5871 5870 5869 5869 5869 5869 5868 5868 5869 5869 5871 5872 5872 5872 5872 5872 5873 5874 5874 5874 5876 5878 5879 5879 5880 5880 5879 5879 5879 5881 5882 5884 5885 5887 5888 5889 5891 5893 5896 5898 5900 5902 5903 5905 5906 5908 5909 5911 5913 5914 5915 5916 5917 5919 5921 5922 5922 5923 5924 5924 5925 5926 5926 5927 5928 5928 5929 5929 5929 5930 5930 5930 5930 5930 5930 5931 5931 5931
5870 5869 5868 5868 5868 5868 5867 5867 5865 5864 5865 5867 5866 5865 5864 5864 5865 5866 5866 5867 5868 5868 5869 5870 5870 5870 5871 5873 5875 5875 5876 5877 5877 5876 5876 5876 5878 5879 5881 5882 5883 5884 5885 5888 5890 5892 5894 5896 5899 5901 5902 5903 5905 5907 5908 5910 5911 5913 5914 5915 5916 5918 5919 5920 5921 5921 5922 5923 5924 5924 5925 5926 5926 5927 5928 5928 5928 5929 5929 5929 5929 5929 5929 5930 5930
5866 5865 5865 5864 5863 5863 5863 5863 5861 5859 5861 5862 5862 5861 5861 5861 5861 5860 5861 5863 5864 5865 5865 5865 5866 5867 5868 5870 5871 5872 5874 5873 5873 5873 5873 5874 5875 5875 5877 5878 5879 5880 5882 5885 5887 5888 5890 5893 5895 5897 5899 5901 5902 5904 5906 5907 5908 5910 5912 5913 5914 5915 5917 5918 5918 5919 5919 5920 5921 5922 5923 5924 5925 5925 5926 5926 5927 5927 5928 5928 5928 5928 5928 5929 5929
5861 5860 5860 5859 5859 5858 5858 5858 5856 5855 5856 5857 5856 5856 5858 5858 5857 5856 5857 5859 5861 5861 5861 5862 5862 5863 5865 5867 5867 5869 5871 5869 5869 5871 5871 5871 5871 5872 5873 5874 5875 5876 5878 5881 5882 5884 5886 5889 5891 5893 5895 5897 5899 5901 5903 5904 5906 5907 5909 5910 5911 5912 5914 5915 5916 5917 5917 5918 5919 5920 5921 5922 5923 5923 5924 5925 5925 5926 5926 5926 5926 5926 5927 5927 5928
5857 5855 5854 5854 5854 5853 5853 5852 5851 5850 5851 5852 5851 5851 5852 5852 5852 5852 5854 5855 5856 5855 5857 5859 5859 5859 5862 5864 5863 5865 5867 5866 5866 5867 5868 5868 5868 5869 5869 5870 5871 5872 5874 5877 5878 5880 5882 5884 5887 5889 5891 5893 5895 5897 5899 5901 5903 5904 5906 5907 5908 5910 5911 5912 5914 5915 5915 5916 5917 5918 5919 5920 5921 5922 5922 5923 5923 5924 5924 5925 5925 5925 5925 5926 5926
5854 5851 5849 5849 5848 5848 5847 5847 5846 5845 5845 5846 5848 5848 5848 5847 5847 5848 5849 5850 5850 5850 5852 5853 5854 5855 5857 5858 5859 5861 5863 5863 5863 5863 5864 5865 5865 5866 5866 5866 5867 5869 5871 5873 5874 5876 5878 5880 5882 5885 5887 5889 5891 5893 5895 5897 5899 5901 5903 5904 5906 5907 5908 5910 5911 5912 5913 5914 5915 5916 5917 5918 5919 5919 5920 5921 5921 5922 5922 5923 5923 5924 5924 5924 5925
5850 5847 5846 5844 5844 5843 5843 5842 5842 5841 5840 5841 5842 5844 5844 5843 5844 5844 5845 5844 5844 5846 5848 5847 5848 5851 5852 5853 5855 5857 5859 5859 5859 5858 5858 5860 5861 5861 5862 5862 5864 5865 5866 5868 5869 5871 5873 5876 5878 5880 5883 5885 5888 5890 5892 5894 5896 5898 5900 5901 5903 5904 5906 5907 5908 5909 5910 5911 5912 5913 5915 5916 5917 5917 5918 5919 5919 5920 5920 5921 5922 5922 5922 5923 5923
5844 5842 5840 5839 5838 5838 5838 5838 5837 5836 5835 5836 5837 5839 5839 5839 5839 5839 5840 5840 5840 5842 5843 5842 5843 5846 5847 5848 5850 5852 5853 5854 5854 5853 5853 5855 5856 5857 5858 5859 5860 5862 5862 5863 5865 5867 5869 5871 5874 5876 5879 5882 5885 5887 5889 5891 5893 5895 5897 5898 5900 5901 5903 5904 5905 5907 5908 5909 5910 5911 5912 5914 5914 5915 5916 5916 5917 5917 5918 5918 5919 5920 5921 5921 5921
5839 5837 5835 5833 5832 5832 5832 5832 5831 5831 5831 5832 5833 5833 5833 5834 5833 5833 5835 5837 5836 5836 5836 5837 5838 5841 5842 5844 5845 5846 5847 5849 5849 5848 5848 5850 5852 5854 5854 5855 5857 5858 5858 5859 5861 5863 5865 5868 5870 5873 5876 5878 5881 5884 5886 5888 5890 5892 5893 5895 5896 5898 5900 5901 5903 5904 5905 5906 5908 5909 5910 5911 5912 5912 5913 5914 5915 5915 5915 5916 5917 5918 5919 5919 5920
5833 5832 5830 5828 5826 5826 5826 5826 5825 5825 5825 5825 5827 5826 5826 5827 5827 5828 5830 5831 5831 5831 5831 5832 5832 5834 5837 5838 5839 5840 5841 5843 5844 5843 5843 5845 5848 5850 5850 5852 5854 5854 5855 5856 5858 5860 5863 5865 5868 5870 5872 5874 5877 5879 5882 5884 5886 5888 5889 5891 5893 5895 5897 5898 5900 5901 5902 5904 5905 5906 5907 5908 5909 5910 5910 5911 5912 5912 5912 5913 5914 5915 5916 5917 5917
5827 5826 5824 5823 5821 5820 5821 5821 5819 5819 5818 5819 5820 5820 5819 5820 5820 5822 5824 5824 5825 5826 5826 5826 5826 5828 5831 5833 5834 5834 5835 5838 5839 5838 5839 5841 5843 5846 5847 5847 5849 5852 5851 5851 5854 5856 5859 5861 5864 5866 5868 5870 5872 5875 5878 5880 5882 5884 5885 5887 5889 5891 5894 5895 5897 5898 5899 5900 5902 5903 5904 5905 5906 5907 5907 5908 5909 5910 5910 5910 5911 5912 5913 5914 5915
5820 5819 5818 5817 5815 5814 5814 5815 5814 5813 5812 5812 5813 5814 5814 5814 5814 5816 5817 5818 5819 5819 5820 5821 5821 5822 5824 5826 5828 5829 5831 5833 5833 5834 5835 5836 5838 5842 5843 5842 5844 5848 5847 5848 5851 5853 5855 5858 5860 5861 5863 5865 5868 5870 5873 5875 5877 5879 5881 5883 5885 5888 5890 5892 5894 5895 5896 5897 5898 5899 5900 5901 5902 5903 5904 5905 5906 5906 5907 5908 5908 5909 5910 5911 5912
5814 5813 5812 5810 5809 5807 5807 5808 5808 5807 5806 5805 5806 5807 5808 5808 5809 5810 5811 5812 5813 5813 5814 5815 5816 5816 5817 5819 5822 5824 5826 5828 5828 5829 5830 5832 5834 5838 5838 5837 5840 5843 5844 5845 5848 5849 5852 5854 5855 5857 5859 5861 5863 5865 5867 5870 5872 5874 5877 5880 5882 5885 5887 5889 5890 5891 5892 5894 5895 5896 5897 5898 5899 5900 5901 5902 5902 5903 5904 5904 5905 5906 5907 5908 5908
5808 5807 5806 5804 5803 5802 5801 5801 5801 5801 5801 5800 5800 5800 5801 5802 5802 5803 5804 5806 5806 5807 5809 5810 5811 5812 5812 5813 5815 5818 5820 5822 5824 5824 5825 5826 5829 5832 5833 5834 5835 5838 5840 5842 5844 5847 5849 5849 5850 5853 5855 5857 5858 5860 5863 5866 5868 5870 5873 5877 5879 5881 5883 5885 5886 5888 5889 5890 5891 5893 5894 5895 5896 5897 5898 5898 5899 5900 5901 5901 5902 5903 5904 5904 5905
5803 5801 5800 5799 5798 5797 5795 5795 5795 5794 5794 5794 5794 5794 5794 5795 5796 5797 5798 5799 5800 5801 5803 5804 5806 5806 5807 5808 5810 5812 5814 5816 5818 5820 5820 5821 5823 5825 5827 5830 5832 5833 5835 5838 5841 5844 5845 5844 5846 5849 5850 5852 5854 5856 5859 5862 5865 5868 5870 5874 5877 5878 5879 5881 5882 5884 5886 5887 5888 5889 5890 5891 5892 5893 5894 5895 5896 5897 5898 5899 5899 5900 5900 5901 5902
5798 5796 5794 5793 5792 5792 5790 5789 5789 5788 5788 5788 5787 5787 5787 5788 5789 5790 5791 5792 5793 5795 5797 5798 5800 5801 5801 5803 5804 5807 5809 5810 5812 5814 5816 5817 5818 5820 5822 5825 5827 5828 5831 5834 5837 5840 5840 5840 5842 5844 5846 5848 5849 5852 5855 5859 5862 5865 5867 5870 5873 5874 5875 5877 5878 5880 5882 5883 5884 5886 5886 5887 5888 5889 5890 5891 5892 5893 5894 5895 5896 5897 5897 5898 5898
5793 5791 5789 5788 5786 5786 5785 5784 5783 5782 5782 5781 5780 5780 5780 5781 5782 5784 5785 5785 5786 5788 5790 5791 5793 5794 5795 5797 5799 5801 5803 5805 5806 5808 5809 5811 5812 5814 5817 5820 5822 5824 5827 5829 5832 5835 5835 5837 5839 5840 5841 5842 5845 5848 5852 5856 5858 5861 5864 5866 5868 5870 5871 5873 5875 5876 5878 5879 5880 5881 5882 5882 5883 5884 5886 5887 5888 5889 5890 5891 5892 5893 5893 5894 5894
5788 5786 5784 5782 5780 5779 5778 5777 5776 5776 5775 5774 5774 5773 5773 5774 5775 5777 5778 5778 5779 5780 5782 5784 5786 5787 5789 5791 5792 5795 5797 5799 5800 5802 5803 5805 5807 5809 5811 5814 5817 5820 5822 5824 5828 5831 5831 5833 5835 5835 5835 5838 5841 5844 5848 5851 5853 5856 5859 5861 5863 5865 5867 5869 5870 5872 5873 5874 5875 5876 5877 5878 5879 5880 5881 5882 5883 5885 5886 5887 5888 5888 5889 5889 5890
5783 5781 5779 5776 5774 5772 5771 5770 5769 5768 5768 5767 5767 5767 5766 5767 5768 5769 5771 5772 5772 5774 5775 5777 5779 5780 5782 5784 5786 5789 5791 5792 5794 5796 5797 5799 5801 5803 5805 5808 5811 5815 5817 5819 5823 5827 5827 5828 5830 5830 5831 5834 5837 5840 5843 5846 5849 5852 5854 5856 5858 5861 5863 5864 5865 5866 5868 5869 5870 5871 5872 5873 5874 5875 5876 5877 5878 5880 5881 5882 5883 5884 5885 5885 5885
5779 5776 5774 5771 5769 5766 5764 5763 5762 5761 5761 5760 5760 5759 5759 5760 5760 5762 5763 5765 5766 5768 5769 5770 5772 5773 5775 5778 5780 5782 5784 5785 5788 5790 5791 5793 5795 5797 5800 5803 5805 5809 5812 5814 5820 5823 5822 5823 5825 5826 5827 5831 5834 5836 5839 5841 5844 5847 5849 5852 5854 5856 5858 5859 5860 5861 5863 5864 5865 5866 5867 5869 5870 5871 5872 5873 5874 5875 5876 5877 5878 5879 5880 5880 5881
5774 5771 5768 5766 5763 5761 5759 5757 5756 5755 5754 5754 5753 5752 5752 5753 5754 5755 5756 5757 5759 5761 5762 5764 5766 5767 5769 5771 5774 5776 5777 5779 5782 5784 5786 5787 5789 5792 5795 5797 5800 5803 5806 5809 5815 5818 5818 5818 5821 5822 5823 5827 5830 5832 5834 5836 5839 5842 5845 5847 5849 5851 5853 5855 5856 5857 5858 5859 5861 5862 5863 5864 5865 5866 5867 5868 5869 5870 5871 5873 5874 5875 5875 5876 5877
5770 5766 5763 5761 5758 5756 5754 5752 5750 5749 5748 5747 5747 5746 5746 5746 5747 5749 5750 5751 5752 5754 5756 5758 5759 5761 5763 5765 5768 5770 5771 5773 5776 5778 5780 5781 5783 5786 5789 5791 5794 5797 5800 5804 5809 5813 5814 5813 5815 5818 5820 5823 5827 5828 5829 5831 5834 5837 5841 5842 5844 5846 5848 5850 5851 5852 5853 5855 5856 5858 5859 5860 5861 5862 5863 5864 5865 5866 5867 5868 5869 5870 5871 5872 5873
5765 5762 5759 5756 5754 5751 5749 5747 5745 5744 5743 5742 5741 5741 5740 5741 5741 5743 5744 5745 5746 5747 5749 5751 5753 5755 5757 5759 5762 5764 5765 5767 5770 5772 5774 5776 5777 5780 5783 5786 5789 5792 5794 5797 5802 5807 5809 5809 5810 5814 5817 5819 5822 5823 5825 5827 5830 5833 5836 5837 5839 5842 5843 5845 5847 5848 5849 5850 5852 5854 5855 5856 5857 5858 5859 5860 5862 5863 5864 5865 5865 5866 5867 5868 5869
5761 5758 5755 5752 5750 5747 5745 5743 5741 5739 5738 5737 5737 5736 5735 5735 5736 5736 5737 5738 5739 5741 5743 5744 5746 5749 5751 5753 5755 5757 5759 5761 5764 5767 5768 5770 5772 5774 5778 5781 5783 5786 5788 5791 5796 5800 5803 5805 5807 5809 5812 5814 5817 5819 5821 5823 5826 5828 5831 5833 5835 5837 5839 5841 5842 5843 5845 5847 5848 5849 5850 5851 5853 5854 5855 5856 5857 5859 5860 5861 5862 5863 5864 5864 5865
5758 5755 5751 5748 5745 5743 5741 5739 5737 5735 5734 5733 5732 5732 5731 5730 5730 5731 5731 5732 5733 5734 5736 5738 5740 5743 5745 5747 5748 5751 5753 5755 5759 5761 5763 5765 5766 5768 5772 5775 5777 5780 5782 5785 5789 5793 5797 5801 5802 5803 5806 5809 5812 5814 5817 5819 5821 5824 5827 5829 5831 5833 5835 5836 5838 5839 5841 5842 5844 5845 5846 5847 5848 5850 5851 5852 5853 5855 5856 5857 5858 5859 5860 5861 5862
5754 5751 5748 5745 5742 5740 5738 5735 5733 5732 5731 5729 5728 5727 5726 5725 5725 5725 5726 5727 5728 5729 5730 5732 5734 5737 5739 5740 5742 5744 5747 5749 5752 5755 5757 5758 5760 5763 5766 5768 5770 5773 5776 5780 5783 5786 5791 5795 5797 5798 5801 5804 5807 5809 5812 5814 5817 5820 5823 5825 5827 5829 5830 5831 5833 5835 5837 5838 5839 5840 5841 5843 5844 5845 5847 5848 5849 5850 5851 5853 5854 5855 5856 5857 5858
5751 5748 5745 5742 5739 5737 5735 5732 5730 5729 5728 5726 5724 5724 5723 5721 5721 5721 5721 5722 5723 5724 5726 5727 5729 5731 5733 5734 5736 5738 5740 5743 5746 5749 5751 5752 5754 5756 5759 5761 5763 5766 5770 5773 5777 5781 5785 5789 5792 5794 5796 5798 5802 5805 5808 5810 5814 5817 5820 5821 5822 5824 5824 5826 5829 5830 5832 5834 5835 5836 5837 5838 5839 5841 5843 5844 5845 5846 5847 5848 5850 5851 5852 5854 5855
5748 5746 5743 5740 5737 5734 5732 5730 5728 5727 5725 5723 5721 5720 5719 5718 5717 5717 5717 5718 5719 5720 5721 5723 5724 5725 5727 5729 5731 5733 5734 5736 5739 5742 5744 5746 5748 5750 5753 5754 5756 5759 5763 5767 5771 5775 5779 5783 5787 5789 5791 5793 5797 5801 5804 5808 5811 5813 5815 5816 5818 5819 5820 5822 5825 5826 5827 5829 5830 5831 5832 5833 5835 5837 5838 5840 5840 5841 5843 5844 5845 5847 5849 5850 5851
5745 5743 5740 5737 5734 5731 5729 5727 5725 5724 5723 5720 5718 5717 5716 5715 5714 5713 5712 5713 5714 5716 5717 5719 5720 5721 5722 5723 5725 5727 5729 5731 5733 5736 5739 5740 5742 5745 5747 5748 5750 5753 5757 5761 5765 5769 5773 5777 5781 5784 5786 5789 5793 5796 5800 5803 5806 5808 5810 5812 5814 5815 5815 5818 5821 5822 5823 5824 5826 5827 5828 5829 5831 5832 5833 5835 5835 5837 5838 5839 5841 5843 5844 5846 5847
5742 5739 5737 5734 5731 5728 5726 5724 5722 5721 5720 5718 5716 5714 5713 5712 5711 5710 5709 5709 5710 5711 5713 5714 5715 5716 5717 5719 5721 5722 5724 5726 5728 5731 5733 5735 5737 5739 5741 5743 5745 5748 5751 5755 5760 5764 5767 5772 5776 5779 5781 5786 5789 5792 5795 5798 5800 5803 5806 5807 5809 5810 5811 5814 5818 5819 5819 5820 5822 5824 5825 5826 5827 5828 5829 5829 5830 5832 5833 5835 5836 5838 5840 5841 5842
5739 5736 5734 5731 5728 5726 5724 5721 5719 5718 5717 5715 5713 5711 5709 5708 5707 5707 5706 5705 5706 5707 5708 5709 5711 5712 5713 5715 5716 5717 5719 5721 5723 5726 5728 5730 5732 5733 5735 5738 5740 5743 5746 5750 5754 5758 5761 5766 5770 5774 5778 5782 5785 5787 5790 5792 5795 5798 5800 5802 5804 5807 5808 5811 5814 5815 5814 5815 5818 5820 5821 5821 5822 5824 5824 5825 5826 5827 5828 5830 5831 5833 5835 5836 5837
5736 5733 5731 5728 5726 5723 5721 5719 5717 5715 5713 5712 5710 5708 5707 5705 5704 5703 5703 5703 5703 5704 5704 5706 5707 5708 5709 5710 5712 5713 5715 5716 5718 5720 5723 5725 5726 5727 5729 5731 5735 5738 5741 5745 5749 5752 5756 5760 5764 5769 5774 5777 5780 5782 5784 5786 5789 5792 5795 5797 5800 5803 5805 5808 5811 5811 5811 5811 5814 5816 5817 5817 5818 5820 5821 5821 5821 5823 5824 5825 5827 5828 5830 5831 5833
5733 5730 5728 5725 5723 5721 5719 5716 5714 5712 5710 5709 5708 5706 5704 5703 5702 5700 5700 5700 5700 5701 5701 5702 5703 5704 5705 5706 5707 5709 5710 5711 5713 5715 5717 5719 5720 5721 5723 5726 5730 5733 5737 5741 5745 5747 5751 5754 5759 5765 5769 5771 5774 5777 5778 5780 5783 5787 5790 5793 5796 5798 5802 5804 5806 5807 5808 5808 5809 5811 5813 5813 5814 5816 5817 5817 5818 5819 5820 5821 5822 5823 5825 5826 5828
5730 5728 5725 5722 5720 5718 5716 5714 5712 5710 5708 5706 5705 5703 5701 5700 5699 5698 5697 5697 5698 5698 5699 5699 5700 5700 5701 5701 5703 5704 5705 5706 5708 5710 5711 5713 5714 5715 5717 5720 5725 5729 5733 5737 5741 5743 5746 5750 5755 5760 5763 5766 5770 5772 5773 5775 5778 5782 5785 5788 5791 5794 5797 5800 5801 5803 5804 5804 5804 5806 5808 5809 5810 5811 5812 5812 5813 5814 5815 5816 5817 5819 5821 5822 5823
5727 5725 5722 5720 5718 5716 5713 5712 5710 5707 5705 5703 5702 5701 5699 5697 5696 5695 5694 5695 5695 5695 5696 5696 5696 5696 5696 5697 5698 5700 5701 5702 5704 5705 5706 5707 5708 5709 5711 5715 5719 5723 5728 5732 5735 5739 5742 5745 5750 5754 5757 5760 5764 5766 5767 5770 5773 5776 5780 5783 5786 5790 5792 5794 5797 5799 5799 5799 5800 5802 5803 5804 5806 5807 5807 5808 5809 5810 5810 5812 5813 5815 5817 5818 5819
5724 5722 5719 5717 5715 5713 5711 5709 5707 5705 5703 5701 5699 5698 5697 5695 5693 5693 5693 5692 5692 5692 5692 5692 5692 5692 5693 5694 5695 5696 5697 5699 5700 5701 5701 5703 5704 5705 5706 5710 5714 5718 5723 5727 5730 5733 5737 5741 5744 5747 5750 5754 5757 5760 5762 5765 5769 5771 5774 5778 5782 5785 5787 5789 5792 5794 5794 5795 5796 5798 5799 5800 5801 5802 5804 5805 5805 5806 5807 5808 5809 5811 5812 5814 5815
5722 5719 5717 5714 5713 5711 5709 5707 5705 5703 5701 5699 5697 5696 5695 5693 5691 5691 5691 5690 5690 5689 5688 5688 5688 5689 5689 5690 5691 5692 5693 5695 5696 5696 5697 5699 5701 5702 5703 5706 5709 5714 5719 5722 5725 5728 5733 5737 5740 5742 5745 5749 5753 5756 5758 5761 5764 5767 5770 5774 5777 5779 5782 5785 5787 5788 5789 5791 5792 5794 5795 5796 5797 5798 5800 5801 5802 5803 5803 5804 5805 5807 5808 5810 5811
5719 5717 5714 5712 5710 5708 5706 5704 5703 5701 5699 5697 5696 5694 5693 5691 5690 5688 5688 5688 5687 5685 5684 5685 5686 5686 5686 5686 5687 5689 5690 5692 5692 5693 5694 5696 5697 5698 5700 5702 5705 5709 5714 5718 5721 5724 5728 5733 5736 5739 5742 5745 5748 5751 5754 5757 5759 5762 5766 5770 5772 5774 5778 5780 5781 5783 5785 5787 5788 5789 5791 5792 5793 5794 5796 5797 5798 5799 5799 5800 5801 5802 5804 5805 5807